G4MDP-13 Weather Reports


time (UTC)temp
F
wind
direction
speed
knots
gust
knots
rain 1hr
in
rain 24hr
in
rain mn
in
humidity
%
barometer
mb
20260506071917 50 136 2.6 4.3 0.00 0.00 0.00 73 1006.8
20260506070517 49 135 2.6 5.2 0.00 0.00 0.00 75 1006.6
20260506070417 49 138 2.6 5.2 0.00 0.00 0.00 76 1006.6
20260506061918 49 118 2.6 5.2 0.00 0.00 0.00 76 1006.4
20260506060517 49 128 2.6 4.3 0.00 0.00 0.00 78 1006.2
20260506060418 49 130 2.6 4.3 0.00 0.00 0.00 77 1006.0
20260506050517 48 151 4.3 4.3 0.00 0.00 0.00 82 1006.1
20260506050418 48 150 4.3 4.3 0.00 0.00 0.00 82 1006.0
20260506044918 48 149 3.5 4.3 0.00 0.00 0.00 81 1005.9
20260506043517 49 153 3.5 4.3 0.00 0.00 0.00 79 1006.0
20260506043418 49 152 3.5 4.3 0.00 0.00 0.00 79 1005.9
20260506041918 49 146 3.5 4.3 0.00 0.00 0.00 79 1005.8
20260506040517 49 151 3.5 5.2 0.00 0.00 0.00 77 1005.8
20260506040418 49 151 3.5 5.2 0.00 0.00 0.00 77 1006.0
20260506034918 49 147 3.5 5.2 0.00 0.00 0.00 77 1006.0
20260506033517 50 146 3.5 5.2 0.00 0.00 0.00 77 1005.9
20260506033418 50 148 3.5 5.2 0.00 0.00 0.00 77 1005.9
20260506031918 50 147 3.5 5.2 0.00 0.00 0.00 76 1005.9
20260506030517 50 146 3.5 5.2 0.00 0.00 0.00 75 1005.9
20260506030418 50 147 3.5 5.2 0.00 0.00 0.00 75 1005.9
20260506024918 51 148 3.5 5.2 0.00 0.00 0.00 74 1005.7
20260506023517 51 139 3.5 6.1 0.00 0.00 0.00 73 1006.0
20260506023418 51 140 3.5 6.1 0.00 0.00 0.00 73 1006.0
20260506021918 51 141 3.5 6.1 0.00 0.00 0.00 74 1006.0
20260506020517 51 149 3.5 5.2 0.00 0.00 0.00 77 1005.9
20260506020418 51 150 3.5 5.2 0.00 0.00 0.00 77 1006.0
20260506014918 51 135 3.5 5.2 0.00 0.00 0.00 76 1006.0
20260506013517 52 145 3.5 4.3 0.00 0.00 0.00 78 1006.0
20260506013418 52 145 3.5 4.3 0.00 0.00 0.00 78 1006.0
20260506011918 52 143 3.5 5.2 0.00 0.00 0.00 78 1006.0
20260506010517 52 146 3.5 5.2 0.00 0.00 0.00 77 1006.1
20260506010418 52 147 3.5 4.3 0.00 0.00 0.00 77 1006.1
20260506004918 52 147 3.5 5.2 0.00 0.00 0.00 76 1006.2
20260506003517 52 145 3.5 5.2 0.00 0.00 0.00 75 1005.9
20260506003418 52 147 3.5 5.2 0.00 0.00 0.00 75 1005.9
20260506001918 52 143 3.5 4.3 0.00 0.00 0.00 75 1006.2
20260506000517 52 144 3.5 5.2 0.00 0.00 0.00 75 1006.3
20260506000418 52 145 3.5 5.2 0.00 0.00 0.00 75 1006.2
20260505234918 52 148 3.5 5.2 0.00 0.00 0.00 74 1006.0
20260505233517 53 145 3.5 5.2 0.00 0.00 0.00 71 1006.0
20260505233418 53 144 3.5 5.2 0.00 0.00 0.00 71 1006.0
20260505231918 53 136 3.5 5.2 0.00 0.00 0.00 67 1006.2
20260505230517 54 148 3.5 5.2 0.00 0.00 0.00 63 1006.1
20260505230418 54 149 2.6 5.2 0.00 0.00 0.00 63 1006.1
20260505224918 54 144 3.5 5.2 0.00 0.00 0.00 62 1005.8
20260505223517 54 141 3.5 5.2 0.00 0.00 0.00 60 1005.9
20260505223418 54 147 3.5 5.2 0.00 0.00 0.00 60 1005.9
20260505221918 55 153 3.5 5.2 0.00 0.00 0.00 58 1006.0
20260505220517 55 152 3.5 6.1 0.00 0.00 0.00 57 1005.9
20260505220418 55 151 3.5 6.1 0.00 0.00 0.00 58 1005.9
20260505214918 56 155 3.5 5.2 0.00 0.00 0.00 59 1005.9
20260505213517 56 162 3.5 5.2 0.00 0.00 0.00 63 1005.9
20260505213418 56 159 3.5 5.2 0.00 0.00 0.00 63 1005.7
20260505211918 56 153 3.5 5.2 0.00 0.00 0.00 61 1005.8
20260505210517 57 153 4.3 5.2 0.00 0.00 0.00 61 1005.6
20260505210418 57 153 4.3 5.2 0.00 0.00 0.00 61 1005.6
20260505204918 57 154 3.5 4.3 0.00 0.00 0.00 63 1005.5
20260505203517 57 150 3.5 4.3 0.00 0.00 0.00 62 1005.4
20260505203418 57 151 3.5 4.3 0.00 0.00 0.00 62 1005.5
20260505201918 57 153 3.5 4.3 0.00 0.00 0.00 61 1005.4
20260505200517 57 156 3.5 4.3 0.00 0.00 0.00 66 1005.5
20260505200420 57 157 3.5 4.3 0.00 0.00 0.00 66 1005.4
20260505200418 57 157 3.5 4.3 0.00 0.00 0.00 66 1005.4
20260505194918 57 159 3.5 4.3 0.00 0.00 0.00 71 1005.2
20260505193517 58 156 3.5 4.3 0.00 0.00 0.00 73 1005.1
20260505193420 58 157 3.5 4.3 0.00 0.00 0.00 73 1004.9
20260505193418 58 157 3.5 4.3 0.00 0.00 0.00 73 1004.9
20260505191918 58 158 3.5 4.3 0.00 0.00 0.00 73 1005.2
20260505190517 59 160 3.5 5.2 0.00 0.00 0.00 72 1005.0
20260505190421 59 159 3.5 5.2 0.00 0.00 0.00 72 1004.9
20260505190418 59 159 3.5 5.2 0.00 0.00 0.00 72 1004.9
20260505184918 60 160 3.5 5.2 0.00 0.00 0.00 67 1004.9
20260505183517 60 152 2.6 3.5 0.00 0.00 0.00 49 1004.8
20260505183420 60 153 2.6 3.5 0.00 0.00 0.00 49 1004.6
20260505183418 60 153 2.6 3.5 0.00 0.00 0.00 49 1004.6
20260505181918 60 156 2.6 4.3 0.00 0.00 0.00 48 1004.6
20260505180517 60 156 3.5 4.3 0.00 0.00 0.00 55 1004.7
20260505180421 60 155 3.5 4.3 0.00 0.00 0.00 55 1004.8
20260505180418 60 155 3.5 4.3 0.00 0.00 0.00 55 1004.8
20260505174918 60 157 3.5 5.2 0.00 0.00 0.00 61 1004.8
20260505173517 61 159 3.5 4.3 0.00 0.00 0.00 62 1004.8
20260505173420 61 158 3.5 4.3 0.00 0.00 0.00 62 1004.9
20260505173418 61 158 3.5 4.3 0.00 0.00 0.00 62 1004.9
20260505171918 60 158 3.5 4.3 0.00 0.00 0.00 58 1005.0
20260505170517 60 161 3.5 5.2 0.00 0.00 0.00 59 1005.0
20260505170420 60 161 3.5 5.2 0.00 0.00 0.00 59 1005.0
20260505170418 60 161 3.5 5.2 0.00 0.00 0.00 59 1005.0
20260505164918 61 157 3.5 8.7 0.00 0.00 0.00 63 1005.1
20260505163517 62 157 3.5 5.2 0.00 0.00 0.00 44 1004.9
20260505163418 62 158 3.5 5.2 0.00 0.00 0.00 45 1004.8
20260505161918 62 159 2.6 5.2 0.00 0.00 0.00 54 1004.8
20260505160517 62 161 3.5 4.3 0.00 0.00 0.00 56 1004.9
20260505160420 62 161 3.5 4.3 0.00 0.00 0.00 55 1004.9
20260505160418 62 161 3.5 4.3 0.00 0.00 0.00 55 1004.9
20260505151918 63 158 3.5 7.0 0.00 0.00 0.00 55 1004.8
20260505150517 63 154 2.6 5.2 0.00 0.00 0.00 42 1005.0
20260505150420 64 153 2.6 5.2 0.00 0.00 0.00 42 1005.0
20260505150418 64 153 2.6 5.2 0.00 0.00 0.00 42 1005.0
20260505140518 64 165 3.5 5.2 0.00 0.00 0.00 40 1005.0
20260505140420 64 163 3.5 5.2 0.00 0.00 0.00 41 1005.1
20260505140418 64 163 3.5 5.2 0.00 0.00 0.00 41 1005.1
20260505124918 64 147 2.6 5.2 0.00 0.00 0.00 48 1005.3
20260505123517 64 155 2.6 4.3 0.00 0.00 0.00 47 1005.3
20260505123421 65 153 2.6 4.3 0.00 0.00 0.00 47 1005.2
20260505123418 65 153 2.6 4.3 0.00 0.00 0.00 47 1005.2
20260505121918 64 160 2.6 4.3 0.00 0.00 0.00 49 1005.4
20260505120517 66 169 2.6 4.3 0.00 0.00 0.00 47 1005.6
20260505120420 65 166 2.6 4.3 0.00 0.00 0.00 47 1005.6
20260505120418 65 166 2.6 4.3 0.00 0.00 0.00 47 1005.6
20260505114918 61 152 2.6 6.1 0.00 0.00 0.00 52 1005.8
20260505113517 61 159 2.6 5.2 0.00 0.00 0.00 54 1005.6
20260505113420 61 159 2.6 5.2 0.00 0.00 0.00 54 1005.6
20260505113418 61 159 2.6 5.2 0.00 0.00 0.00 54 1005.6
20260505111918 60 135 2.6 4.3 0.00 0.00 0.00 58 1005.8
20260505110517 60 116 2.6 5.2 0.00 0.00 0.00 58 1005.9
20260505110418 60 113 2.6 5.2 0.00 0.00 0.00 58 1006.0
20260505101918 60 162 2.6 4.3 0.00 0.00 0.00 61 1005.8
20260505101118 60 151 2.6 5.2 0.00 0.00 0.00 61 1005.6
20260505100718 60 147 2.6 5.2 0.00 0.00 0.00 59 1005.7
20260505100518 61 139 2.6 5.2 0.00 0.00 0.00 58 1005.9
20260505100353 61 138 2.6 5.2 0.00 0.00 0.00 58 1005.7
20260505100350 61 138 2.6 5.2 0.00 0.00 0.00 58 1005.7
20260505094851 60 128 2.6 5.2 0.00 0.00 0.00 59 1005.9
20260505093450 60 140 2.6 5.2 0.00 0.00 0.00 58 1005.9
20260505093353 60 138 2.6 5.2 0.00 0.00 0.00 58 1005.8
20260505093351 60 138 2.6 5.2 0.00 0.00 0.00 58 1005.8
20260505091851 60 148 2.6 7.0 0.00 0.00 0.00 57 1006.0
20260505090450 60 130 2.6 4.3 0.00 0.00 0.00 56 1006.2
20260505090351 60 131 2.6 5.2 0.00 0.00 0.00 57 1006.3
20260505084850 60 120 1.7 6.1 0.00 0.00 0.00 58 1006.1
20260505083450 58 126 2.6 6.1 0.00 0.00 0.00 63 1006.0
20260505083350 58 123 2.6 6.1 0.00 0.00 0.00 62 1006.0
20260505081850 57 126 2.6 5.2 0.00 0.00 0.00 68 1006.1
20260505080450 57 110 2.6 5.2 0.00 0.00 0.00 69 1006.3
20260505080350 57 105 2.6 5.2 0.00 0.00 0.00 68 1006.2
20260505074850 58 133 2.6 5.2 0.00 0.00 0.00 71 1006.0
20260505073450 56 142 2.6 7.0 0.00 0.00 0.00 75 1006.3
20260505073350 56 142 2.6 7.0 0.00 0.00 0.00 74 1006.4